﻿_id,日時,平均風速(m/s),平均風向,最大瞬間風速(m/s),最大風速時風向,気温(℃),湿度(%),10分間移動積算雨量(mm),1時間移動積算雨量(mm),日雨量(mm),累計雨量(mm),日射(日積算)(MJ/m2),日照(日積算)(min),現地気圧(hPa),海面気圧(hPa)
1,2024-06-03T00:00:00,1.1,北北東,1.8,北東,16.9,82.3,0,0,2,2,15.94,292,997.1,1010.8
2,2024-06-03T00:01:00,1.2,北北東,2.1,北,17,82.4,0,0,0,2,0,0,997.1,1010.8
3,2024-06-03T00:02:00,1.2,北北東,2.1,北,16.9,82.3,0,0,0,2,0,0,997.1,1010.8
4,2024-06-03T00:03:00,1.2,北北東,2.1,北,16.8,82.5,0,0,0,2,0,0,997.1,1010.8
5,2024-06-03T00:04:00,1.2,北北東,2.1,北,16.9,82.8,0,0,0,2,0,0,997,1010.7
6,2024-06-03T00:05:00,1.2,北北東,2.1,北,16.9,82.7,0,0,0,2,0,0,997,1010.7
7,2024-06-03T00:06:00,1.2,北東,2.1,北,16.9,82.8,0,0,0,2,0,0,997,1010.7
8,2024-06-03T00:07:00,1.2,北東,2.1,北,16.8,82.6,0,0,0,2,0,0,997,1010.7
9,2024-06-03T00:08:00,1.2,北東,2.1,北,16.6,82.8,0,0,0,2,0,0,997,1010.7
10,2024-06-03T00:09:00,1.2,北東,2.1,北,16.6,83.2,0,0,0,2,0,0,997,1010.7
11,2024-06-03T00:10:00,1.2,北東,2.1,北,16.5,83.3,0,0,0,2,0,0,997,1010.7
12,2024-06-03T00:11:00,1.1,北東,1.9,北東,16.4,83.5,0,0,0,2,0,0,997,1010.7
13,2024-06-03T00:12:00,1.1,北東,1.9,北東,16.5,83.9,0,0,0,2,0,0,997.1,1010.8
14,2024-06-03T00:13:00,1.1,北東,1.9,北東,16.5,84.1,0,0,0,2,0,0,997.1,1010.8
15,2024-06-03T00:14:00,1,北東,1.9,北東,16.5,84.1,0,0,0,2,0,0,997.1,1010.8
16,2024-06-03T00:15:00,0.9,北東,1.9,北東,16.6,84.3,0,0,0,2,0,0,997.1,1010.8
17,2024-06-03T00:16:00,0.8,北東,1.6,北東,16.5,84.2,0,0,0,2,0,0,997.1,1010.8
18,2024-06-03T00:17:00,0.8,北東,1.4,北東,16.4,84,0,0,0,2,0,0,997.1,1010.8
19,2024-06-03T00:18:00,0.8,北東,1.2,北東,16.4,84.2,0,0,0,2,0,0,997.1,1010.8
20,2024-06-03T00:19:00,0.8,北東,1.2,北東,16.5,84.4,0,0,0,2,0,0,997.1,1010.8
21,2024-06-03T00:20:00,0.7,北北東,1.2,北東,16.5,84.4,0,0,0,2,0,0,997.1,1010.8
22,2024-06-03T00:21:00,0.7,北北東,1.2,北東,16.4,84.3,0,0,0,2,0,0,997.1,1010.8
23,2024-06-03T00:22:00,0.7,北北東,1.1,北,16.4,84.5,0,0,0,2,0,0,997.1,1010.8
24,2024-06-03T00:23:00,0.7,北北東,1.1,北,16.4,84.9,0,0,0,2,0,0,997,1010.7
25,2024-06-03T00:24:00,0.7,北北東,1.2,北東,16.4,84.9,0,0,0,2,0,0,997,1010.7
26,2024-06-03T00:25:00,0.7,北北東,1.2,北東,16.3,84.7,0,0,0,2,0,0,996.9,1010.6
27,2024-06-03T00:26:00,0.8,北北東,1.2,北東,16.3,85,0,0,0,2,0,0,997,1010.7
28,2024-06-03T00:27:00,0.8,北東,1.2,北東,16.3,85,0,0,0,2,0,0,996.9,1010.6
29,2024-06-03T00:28:00,0.8,北東,1.2,北東,16.3,85,0,0,0,2,0,0,996.9,1010.6
30,2024-06-03T00:29:00,0.9,北東,1.3,北東,16.3,84.9,0,0,0,2,0,0,996.9,1010.6
31,2024-06-03T00:30:00,0.9,北東,1.3,北東,16.4,84.9,0,0,0,2,0,0,996.9,1010.6
32,2024-06-03T00:31:00,0.9,北東,1.3,北東,16.4,84.9,0,0,0,2,0,0,996.9,1010.6
33,2024-06-03T00:32:00,0.9,北東,1.3,北東,16.4,85,0,0,0,2,0,0,996.9,1010.6
34,2024-06-03T00:33:00,0.9,北東,1.3,北東,16.5,85,0,0,0,2,0,0,996.9,1010.6
35,2024-06-03T00:34:00,0.9,北東,1.3,北東,16.4,84.8,0,0,0,2,0,0,996.8,1010.5
36,2024-06-03T00:35:00,0.9,北北東,1.3,北東,16.3,84.9,0,0,0,2,0,0,996.8,1010.5
37,2024-06-03T00:36:00,0.9,北北東,1.3,北東,16.3,85.2,0,0,0,2,0,0,996.8,1010.5
38,2024-06-03T00:37:00,0.9,北北東,1.3,北東,16.4,85.6,0,0,0,2,0,0,996.8,1010.5
39,2024-06-03T00:38:00,0.9,北北東,1.3,北東,16.4,85.7,0,0,0,2,0,0,996.8,1010.5
40,2024-06-03T00:39:00,0.8,北北東,1.3,北北東,16.4,85.6,0,0,0,2,0,0,996.8,1010.5
41,2024-06-03T00:40:00,0.8,北北東,1.3,北北東,16.5,85.4,0,0,0,2,0,0,996.8,1010.5
42,2024-06-03T00:41:00,0.8,北北東,1.4,北北東,16.4,85,0,0,0,2,0,0,996.8,1010.5
43,2024-06-03T00:42:00,0.8,北北東,1.4,北北東,16.3,84.9,0,0,0,2,0,0,996.8,1010.5
44,2024-06-03T00:43:00,0.8,北北東,1.4,北北東,16.4,85.3,0,0,0,2,0,0,996.8,1010.5
45,2024-06-03T00:44:00,0.8,北北東,1.7,北北東,16.3,85,0,0,0,2,0,0,996.8,1010.5
46,2024-06-03T00:45:00,0.8,北北東,1.7,北北東,16.3,85.2,0,0,0,2,0,0,996.8,1010.5
47,2024-06-03T00:46:00,0.7,北,1.7,北北東,16.2,85.2,0,0,0,2,0,0,996.8,1010.5
48,2024-06-03T00:47:00,0.7,北,1.7,北北東,16.3,85.5,0,0,0,2,0,0,996.8,1010.5
49,2024-06-03T00:48:00,0.7,北,1.7,北北東,16.1,85.3,0,0,0,2,0,0,996.8,1010.5
50,2024-06-03T00:49:00,0.7,北,1.7,北北東,16.1,85.8,0,0,0,2,0,0,996.8,1010.5
51,2024-06-03T00:50:00,0.7,北,1.7,北北東,16.1,86.3,0,0,0,2,0,0,996.9,1010.6
52,2024-06-03T00:51:00,0.7,北北西,1.7,北北東,16.2,86.5,0,0,0,2,0,0,996.9,1010.6
53,2024-06-03T00:52:00,0.7,北北西,1.7,北北東,16,86.3,0,0,0,2,0,0,996.8,1010.5
54,2024-06-03T00:53:00,0.7,北北西,1.7,北北東,16.1,86.5,0,0,0,2,0,0,996.8,1010.5
55,2024-06-03T00:54:00,0.7,北北西,1.4,北西,16,86.5,0,0,0,2,0,0,996.8,1010.5
56,2024-06-03T00:55:00,0.7,北北西,1.4,北西,15.9,86.6,0,0,0,2,0,0,996.8,1010.5
57,2024-06-03T00:56:00,0.7,北北西,1.4,北西,16,86.9,0,0,0,2,0,0,996.8,1010.5
58,2024-06-03T00:57:00,0.7,北北西,1.4,北西,16,87.2,0,0,0,2,0,0,996.7,1010.4
59,2024-06-03T00:58:00,0.7,北北西,1.6,北北東,16,86.9,0,0,0,2,0,0,996.6,1010.3
60,2024-06-03T00:59:00,0.7,北北西,1.6,北北東,15.9,87.2,0,0,0,2,0,0,996.7,1010.4
61,2024-06-03T01:00:00,0.7,北北西,1.6,北北東,15.7,87.2,0,0,0,2,0,0,996.7,1010.4
62,2024-06-03T01:01:00,0.7,北北西,1.6,北北東,15.6,87.3,0,0,0,2,0,0,996.7,1010.4
63,2024-06-03T01:02:00,0.7,北北西,1.6,北北東,15.6,87.7,0,0,0,2,0,0,996.8,1010.5
64,2024-06-03T01:03:00,0.7,北北西,1.6,北北東,15.5,88.1,0,0,0,2,0,0,996.8,1010.6
65,2024-06-03T01:04:00,0.7,北北西,1.6,北北東,15.5,88.4,0,0,0,2,0,0,996.9,1010.7
66,2024-06-03T01:05:00,0.7,北西,1.6,北北東,15.4,88.6,0,0,0,2,0,0,996.9,1010.7
67,2024-06-03T01:06:00,0.8,北西,1.6,北北東,15.4,89.1,0,0,0,2,0,0,996.8,1010.6
68,2024-06-03T01:07:00,0.8,北西,1.6,北北東,15.4,89.2,0,0,0,2,0,0,996.8,1010.6
69,2024-06-03T01:08:00,0.9,北西,1.6,北西,15.5,89.7,0,0,0,2,0,0,996.8,1010.6
70,2024-06-03T01:09:00,0.9,北西,1.6,北西,15.4,89.4,0,0,0,2,0,0,996.9,1010.7
71,2024-06-03T01:10:00,0.8,西北西,1.6,北西,15.4,89.3,0,0,0,2,0,0,996.9,1010.7
72,2024-06-03T01:11:00,0.8,西北西,1.6,北西,15.3,89.5,0,0,0,2,0,0,996.9,1010.7
73,2024-06-03T01:12:00,0.8,西北西,1.6,北西,15.1,89.4,0,0,0,2,0,0,996.9,1010.7
74,2024-06-03T01:13:00,0.8,西北西,1.6,北西,15.1,89.9,0,0,0,2,0,0,996.8,1010.6
75,2024-06-03T01:14:00,0.7,西北西,1.6,北西,15.2,90.4,0,0,0,2,0,0,996.8,1010.6
76,2024-06-03T01:15:00,0.8,西北西,1.6,北西,15.2,90.4,0,0,0,2,0,0,996.8,1010.6
77,2024-06-03T01:16:00,0.8,西北西,1.4,西北西,15.2,90.3,0,0,0,2,0,0,996.8,1010.6
78,2024-06-03T01:17:00,0.7,西北西,1.4,西北西,15.2,90.1,0,0,0,2,0,0,996.8,1010.6
79,2024-06-03T01:18:00,0.7,西北西,1.3,西北西,15.1,90.1,0,0,0,2,0,0,996.7,1010.5
80,2024-06-03T01:19:00,0.6,西北西,1.3,西北西,15.1,90.3,0,0,0,2,0,0,996.7,1010.5
81,2024-06-03T01:20:00,0.6,西北西,1.3,西北西,15.2,90.7,0,0,0,2,0,0,996.7,1010.5
82,2024-06-03T01:21:00,0.7,西北西,1.3,西北西,15.2,90.6,0,0,0,2,0,0,996.6,1010.4
83,2024-06-03T01:22:00,0.7,西北西,1.3,西北西,15.2,90.4,0,0,0,2,0,0,996.6,1010.4
84,2024-06-03T01:23:00,0.7,西北西,1.3,西北西,15.3,90.5,0,0,0,2,0,0,996.6,1010.4
85,2024-06-03T01:24:00,0.7,北西,1.3,西北西,15,89.9,0,0,0,2,0,0,996.6,1010.4
86,2024-06-03T01:25:00,0.6,北西,1.3,西北西,15.1,90.5,0,0,0,2,0,0,996.7,1010.5
87,2024-06-03T01:26:00,0.5,北西,1.3,西北西,15,90.7,0,0,0,2,0,0,996.7,1010.5
88,2024-06-03T01:27:00,0.5,北西,1.2,西北西,15,90.9,0,0,0,2,0,0,996.7,1010.5
89,2024-06-03T01:28:00,0.5,北西,1.2,西北西,15,91.1,0,0,0,2,0,0,996.7,1010.5
90,2024-06-03T01:29:00,0.5,北西,1.2,西北西,15,91.3,0,0,0,2,0,0,996.6,1010.4
91,2024-06-03T01:30:00,0.5,北西,1.2,西北西,15,91.4,0,0,0,2,0,0,996.7,1010.5
92,2024-06-03T01:31:00,0.5,北西,1.2,西北西,15,91.6,0,0,0,2,0,0,996.7,1010.5
93,2024-06-03T01:32:00,0.5,北西,1.5,西,14.7,91.1,0,0,0,2,0,0,996.7,1010.5
94,2024-06-03T01:33:00,0.5,北西,1.5,西,14.7,91.3,0,0,0,2,0,0,996.7,1010.5
95,2024-06-03T01:34:00,0.6,西北西,1.5,西,14.8,91.7,0,0,0,2,0,0,996.6,1010.4
96,2024-06-03T01:35:00,0.6,西北西,1.5,西,14.8,91.8,0,0,0,2,0,0,996.5,1010.3
97,2024-06-03T01:36:00,0.6,西北西,1.5,西,14.7,91.9,0,0,0,2,0,0,996.6,1010.4
98,2024-06-03T01:37:00,0.6,西北西,1.5,西,15,92.7,0,0,0,2,0,0,996.6,1010.4
99,2024-06-03T01:38:00,0.6,北西,1.5,西,15,92.5,0,0,0,2,0,0,996.6,1010.4
100,2024-06-03T01:39:00,0.6,北西,1.5,西,14.9,92,0,0,0,2,0,0,996.6,1010.4
101,2024-06-03T01:40:00,0.5,北西,1.5,西,15,92.2,0,0,0,2,0,0,996.6,1010.4
102,2024-06-03T01:41:00,0.5,北西,1.5,西,15,92.2,0,0,0,2,0,0,996.6,1010.4
103,2024-06-03T01:42:00,0.4,北北西,1.4,西,15,91.8,0,0,0,2,0,0,996.7,1010.5
104,2024-06-03T01:43:00,0.4,北北西,1.1,西北西,15,92.1,0,0,0,2,0,0,996.7,1010.5
105,2024-06-03T01:44:00,0.4,北北西,1.6,西,14.9,91.8,0,0,0,2,0,0,996.7,1010.5
106,2024-06-03T01:45:00,0.5,北北西,1.6,西,14.9,91.6,0,0,0,2,0,0,996.7,1010.5
107,2024-06-03T01:46:00,0.6,北西,1.6,西,14.8,91.6,0,0,0,2,0,0,996.7,1010.5
108,2024-06-03T01:47:00,0.6,北西,1.6,西,14.7,91.5,0,0,0,2,0,0,996.8,1010.6
109,2024-06-03T01:48:00,0.6,北西,1.6,西,14.8,92,0,0,0,2,0,0,996.8,1010.6
110,2024-06-03T01:49:00,0.6,西北西,1.6,西,14.8,92.2,0,0,0,2,0,0,996.7,1010.5
111,2024-06-03T01:50:00,0.7,西北西,1.7,西,14.8,92,0,0,0,2,0,0,996.7,1010.5
112,2024-06-03T01:51:00,0.9,西北西,2.1,西,14.5,91.3,0,0,0,2,0,0,996.7,1010.5
113,2024-06-03T01:52:00,1,西北西,2.2,西北西,14.4,91.6,0,0,0,2,0,0,996.7,1010.5
114,2024-06-03T01:53:00,1.2,西,2.2,西北西,14.2,92.1,0,0,0,2,0,0,996.6,1010.4
115,2024-06-03T01:54:00,1.3,西,2.3,西,14.2,92.8,0,0,0,2,0,0,996.7,1010.5
116,2024-06-03T01:55:00,1.3,西,2.3,西,14.1,93.3,0,0,0,2,0,0,996.7,1010.5
117,2024-06-03T01:56:00,1.4,西,2.3,西,14.2,93.8,0,0,0,2,0,0,996.7,1010.5
118,2024-06-03T01:57:00,1.5,西北西,2.3,西,14.3,94.3,0,0,0,2,0,0,996.7,1010.5
119,2024-06-03T01:58:00,1.6,西北西,2.3,西,14.3,94.1,0,0,0,2,0,0,996.6,1010.4
120,2024-06-03T01:59:00,1.7,西北西,2.3,西,14.2,93.9,0,0,0,2,0,0,996.6,1010.4
121,2024-06-03T02:00:00,1.7,西北西,2.3,西,14.3,94,0,0,0,2,0,0,996.6,1010.4
122,2024-06-03T02:01:00,1.7,西北西,2.3,西,14.1,93.6,0,0,0,2,0,0,996.6,1010.4
123,2024-06-03T02:02:00,1.7,西,2.3,西,14,93.8,0,0,0,2,0,0,996.6,1010.4
124,2024-06-03T02:03:00,1.7,西,2.3,西,14,94.2,0,0,0,2,0,0,996.7,1010.5
125,2024-06-03T02:04:00,1.6,西,2.3,西,13.9,94.4,0,0,0,2,0,0,996.7,1010.5
126,2024-06-03T02:05:00,1.6,西,2.3,西,13.9,95.1,0,0,0,2,0,0,996.7,1010.5
127,2024-06-03T02:06:00,1.7,西,2.3,西,13.8,94.9,0,0,0,2,0,0,996.7,1010.5
128,2024-06-03T02:07:00,1.7,西,2.3,西,13.8,95.2,0,0,0,2,0,0,996.7,1010.5
129,2024-06-03T02:08:00,1.7,西,2.3,西,13.9,95.4,0,0,0,2,0,0,996.6,1010.4
130,2024-06-03T02:09:00,1.7,西,2.5,西,13.9,95.3,0,0,0,2,0,0,996.6,1010.4
131,2024-06-03T02:10:00,1.8,西,2.5,西,13.9,95.3,0,0,0,2,0,0,996.6,1010.4
132,2024-06-03T02:11:00,1.8,西,2.5,西,13.9,95.3,0,0,0,2,0,0,996.7,1010.5
133,2024-06-03T02:12:00,1.8,西,2.5,西,13.8,95.2,0,0,0,2,0,0,996.7,1010.5
134,2024-06-03T02:13:00,1.8,西,2.5,西,13.8,95.5,0,0,0,2,0,0,996.7,1010.5
135,2024-06-03T02:14:00,1.7,西,2.5,西,13.8,95.5,0,0,0,2,0,0,996.6,1010.4
136,2024-06-03T02:15:00,1.7,西北西,2.5,西,13.9,95.6,0,0,0,2,0,0,996.6,1010.4
137,2024-06-03T02:16:00,1.7,西北西,2.5,西,13.9,95.7,0,0,0,2,0,0,996.6,1010.4
138,2024-06-03T02:17:00,1.7,西北西,2.5,西,13.7,95.3,0,0,0,2,0,0,996.6,1010.4
139,2024-06-03T02:18:00,1.8,西,2.5,西,13.7,95.4,0,0,0,2,0,0,996.7,1010.5
140,2024-06-03T02:19:00,1.7,西,2.5,西,13.7,95.6,0,0,0,2,0,0,996.7,1010.5
141,2024-06-03T02:20:00,1.6,西,2.3,西,13.9,95.8,0,0,0,2,0,0,996.6,1010.4
142,2024-06-03T02:21:00,1.6,西,2.3,西,14,95.9,0,0,0,2,0,0,996.6,1010.4
143,2024-06-03T02:22:00,1.6,西,2.3,西,14,95.6,0,0,0,2,0,0,996.6,1010.4
144,2024-06-03T02:23:00,1.6,西,2.4,西,13.8,95.1,0,0,0,2,0,0,996.6,1010.4
145,2024-06-03T02:24:00,1.7,西,2.5,西,13.7,95.3,0,0,0,2,0,0,996.6,1010.4
146,2024-06-03T02:25:00,1.8,西,3,西,13.6,95.4,0,0,0,2,0,0,996.6,1010.4
147,2024-06-03T02:26:00,1.8,西,3,西,13.5,95.5,0,0,0,2,0,0,996.6,1010.4
148,2024-06-03T02:27:00,1.8,西,3,西,13.5,95.8,0,0,0,2,0,0,996.6,1010.4
149,2024-06-03T02:28:00,1.8,西,3,西,13.5,96.2,0,0,0,2,0,0,996.6,1010.4
150,2024-06-03T02:29:00,1.9,西,3,西,13.5,96.3,0,0,0,2,0,0,996.6,1010.4
151,2024-06-03T02:30:00,1.9,西,3,西,13.6,96.6,0,0,0,2,0,0,996.6,1010.4
152,2024-06-03T02:31:00,1.9,西,3,西,13.6,96.4,0,0,0,2,0,0,996.5,1010.3
153,2024-06-03T02:32:00,2,西,3,西,13.7,96.5,0,0,0,2,0,0,996.6,1010.4
154,2024-06-03T02:33:00,2,西,3,西,13.7,96.3,0,0,0,2,0,0,996.6,1010.4
155,2024-06-03T02:34:00,1.9,西,3,西,13.6,96.2,0,0,0,2,0,0,996.6,1010.4
156,2024-06-03T02:35:00,1.9,西,2.8,西,13.6,96.1,0,0,0,2,0,0,996.6,1010.4
157,2024-06-03T02:36:00,1.8,西,2.8,西,13.9,96.5,0,0,0,2,0,0,996.6,1010.4
158,2024-06-03T02:37:00,1.8,西,2.8,西,13.8,96.2,0,0,0,2,0,0,996.6,1010.4
159,2024-06-03T02:38:00,1.8,西,2.5,西,13.7,96,0,0,0,2,0,0,996.6,1010.4
160,2024-06-03T02:39:00,1.7,西北西,2.4,西北西,13.8,95.9,0,0,0,2,0,0,996.5,1010.3
161,2024-06-03T02:40:00,1.7,西北西,2.4,西北西,13.9,96,0,0,0,2,0,0,996.5,1010.3
162,2024-06-03T02:41:00,1.6,西北西,2.4,西北西,14,95.9,0,0,0,2,0,0,996.5,1010.3
163,2024-06-03T02:42:00,1.6,西北西,2.4,西北西,14.1,95.8,0,0,0,2,0,0,996.5,1010.3
164,2024-06-03T02:43:00,1.6,西北西,2.4,西北西,13.9,95.3,0,0,0,2,0,0,996.6,1010.4
165,2024-06-03T02:44:00,1.5,西北西,2.2,西,13.9,95,0,0,0,2,0,0,996.6,1010.4
166,2024-06-03T02:45:00,1.6,西北西,2.2,西,13.8,94.8,0,0,0,2,0,0,996.6,1010.4
167,2024-06-03T02:46:00,1.5,西北西,2.2,西,13.8,95.2,0,0,0,2,0,0,996.6,1010.4
168,2024-06-03T02:47:00,1.5,西北西,2.2,西,13.9,95.2,0,0,0,2,0,0,996.6,1010.4
169,2024-06-03T02:48:00,1.5,西北西,2.2,西,13.7,94.9,0,0,0,2,0,0,996.6,1010.4
170,2024-06-03T02:49:00,1.5,西,2.2,西,13.6,95,0,0,0,2,0,0,996.6,1010.4
171,2024-06-03T02:50:00,1.6,西,2.2,西,13.7,95.5,0,0,0,2,0,0,996.5,1010.3
172,2024-06-03T02:51:00,1.6,西,2.2,西,13.7,95.6,0,0,0,2,0,0,996.6,1010.4
173,2024-06-03T02:52:00,1.6,西北西,2.2,西,13.7,95.5,0,0,0,2,0,0,996.5,1010.3
174,2024-06-03T02:53:00,1.6,西北西,2.2,西,13.6,95.5,0,0,0,2,0,0,996.5,1010.3
175,2024-06-03T02:54:00,1.5,西北西,2.2,西北西,13.8,95.7,0,0,0,2,0,0,996.5,1010.3
176,2024-06-03T02:55:00,1.4,西北西,2,西北西,14,95.9,0,0,0,2,0,0,996.4,1010.2
177,2024-06-03T02:56:00,1.4,西北西,2,西北西,14,95.6,0,0,0,2,0,0,996.4,1010.2
178,2024-06-03T02:57:00,1.3,西北西,2,西北西,14,95.4,0,0,0,2,0,0,996.4,1010.2
179,2024-06-03T02:58:00,1.2,西北西,2,西北西,14,95.1,0,0,0,2,0,0,996.4,1010.2
180,2024-06-03T02:59:00,1.2,西北西,2,西北西,14,95,0,0,0,2,0,0,996.4,1010.2
181,2024-06-03T03:00:00,1.2,西北西,2,西北西,13.9,94.3,0,0,0,2,0,0,996.4,1010.2
182,2024-06-03T03:01:00,1.2,西北西,1.8,西,13.9,94.3,0,0,0,2,0,0,996.4,1010.2
183,2024-06-03T03:02:00,1.2,西北西,1.8,西,13.9,94.3,0,0,0,2,0,0,996.5,1010.3
184,2024-06-03T03:03:00,1.1,西北西,1.8,西,14.1,94.5,0,0,0,2,0,0,996.5,1010.3
185,2024-06-03T03:04:00,1.1,西北西,1.8,西,14,94.1,0,0,0,2,0,0,996.5,1010.3
186,2024-06-03T03:05:00,1.1,西北西,1.8,西,14,93.8,0,0,0,2,0,0,996.5,1010.3
187,2024-06-03T03:06:00,1,西北西,1.8,西,14,93.7,0,0,0,2,0,0,996.5,1010.3
188,2024-06-03T03:07:00,1,西北西,1.8,西,13.9,93.7,0,0,0,2,0,0,996.5,1010.3
189,2024-06-03T03:08:00,1,西北西,1.8,西,13.8,93.9,0,0,0,2,0,0,996.5,1010.3
190,2024-06-03T03:09:00,0.9,西北西,1.8,西,13.8,94.3,0,0,0,2,0,0,996.6,1010.4
191,2024-06-03T03:10:00,0.8,西北西,1.6,西,13.7,94.4,0,0,0,2,0,0,996.5,1010.3
192,2024-06-03T03:11:00,0.8,西北西,1.3,西,13.6,94.6,0,0,0,2,0,0,996.5,1010.3
193,2024-06-03T03:12:00,0.7,西北西,1.3,西,13.7,95.3,0,0,0,2,0,0,996.5,1010.3
194,2024-06-03T03:13:00,0.7,西北西,1.3,西,13.7,95.4,0,0,0,2,0,0,996.6,1010.4
195,2024-06-03T03:14:00,0.6,西北西,1.3,西,13.7,95.4,0,0,0,2,0,0,996.5,1010.3
196,2024-06-03T03:15:00,0.6,西北西,1.3,西,13.8,95.4,0,0,0,2,0,0,996.5,1010.3
197,2024-06-03T03:16:00,0.7,西北西,1.3,西,13.7,95.5,0,0,0,2,0,0,996.5,1010.3
198,2024-06-03T03:17:00,0.7,西北西,1.4,北西,13.7,95.2,0,0,0,2,0,0,996.6,1010.4
199,2024-06-03T03:18:00,0.7,西北西,1.4,北西,13.8,95.5,0,0,0,2,0,0,996.6,1010.4
200,2024-06-03T03:19:00,0.7,西北西,1.5,北西,13.7,95.4,0,0,0,2,0,0,996.6,1010.4
201,2024-06-03T03:20:00,0.8,北西,1.5,北西,13.7,95.4,0,0,0,2,0,0,996.6,1010.4
202,2024-06-03T03:21:00,0.8,北西,1.5,北西,13.7,95.3,0,0,0,2,0,0,996.6,1010.4
203,2024-06-03T03:22:00,0.9,北西,1.5,北西,13.8,95.5,0,0,0,2,0,0,996.6,1010.4
204,2024-06-03T03:23:00,0.9,北西,1.5,北西,13.8,95.4,0,0,0,2,0,0,996.6,1010.4
205,2024-06-03T03:24:00,1,北西,1.5,北西,13.8,95.5,0,0,0,2,0,0,996.6,1010.4
206,2024-06-03T03:25:00,1,北西,1.5,北西,13.7,95.4,0,0,0,2,0,0,996.6,1010.4
207,2024-06-03T03:26:00,1,北西,1.5,北西,13.8,95.5,0,0,0,2,0,0,996.6,1010.4
208,2024-06-03T03:27:00,0.9,北西,1.5,北西,13.8,95.4,0,0,0,2,0,0,996.6,1010.4
209,2024-06-03T03:28:00,0.9,北西,1.5,北西,13.9,95.5,0,0,0,2,0,0,996.5,1010.3
210,2024-06-03T03:29:00,0.8,北西,1.5,北西,13.8,95.3,0,0,0,2,0,0,996.5,1010.3
211,2024-06-03T03:30:00,0.7,北北西,1.5,北西,13.8,95.2,0,0,0,2,0,0,996.5,1010.3
212,2024-06-03T03:31:00,0.7,北北西,1.5,北西,13.7,95,0,0,0,2,0,0,996.5,1010.3
213,2024-06-03T03:32:00,0.6,北北西,1.5,北西,13.7,95.3,0,0,0,2,0,0,996.5,1010.3
214,2024-06-03T03:33:00,0.6,北北西,1.4,北西,13.6,95.4,0,0,0,2,0,0,996.5,1010.3
215,2024-06-03T03:34:00,0.6,北,1.4,北西,13.7,95.7,0,0,0,2,0,0,996.4,1010.2
216,2024-06-03T03:35:00,0.5,北,1.2,北西,13.9,95.8,0,0,0,2,0,0,996.5,1010.3
217,2024-06-03T03:36:00,0.5,北,1.1,北北東,13.8,95.4,0,0,0,2,0,0,996.5,1010.3
218,2024-06-03T03:37:00,0.4,北,1.1,北北東,13.8,95.3,0,0,0,2,0,0,996.4,1010.2
219,2024-06-03T03:38:00,0.4,北,1.1,北北東,13.7,95.1,0,0,0,2,0,0,996.4,1010.2
220,2024-06-03T03:39:00,0.4,北,1.1,北北東,13.7,95.3,0,0,0,2,0,0,996.4,1010.2
221,2024-06-03T03:40:00,0.5,北北西,1.1,北北東,13.6,95.4,0,0,0,2,0,0,996.4,1010.2
222,2024-06-03T03:41:00,0.5,北北西,1.1,北北東,13.7,95.5,0,0,0,2,0,0,996.4,1010.2
223,2024-06-03T03:42:00,0.5,北西,1.1,北北東,13.6,95.6,0,0,0,2,0,0,996.5,1010.3
224,2024-06-03T03:43:00,0.6,北西,1.3,西北西,13.6,95.7,0,0,0,2,0,0,996.4,1010.2
225,2024-06-03T03:44:00,0.6,西北西,1.6,西北西,13.5,95.6,0,0,0,2,0,0,996.4,1010.2
226,2024-06-03T03:45:00,0.6,西北西,1.6,西北西,13.6,95.8,0,0,0,2,0,0,996.5,1010.3
227,2024-06-03T03:46:00,0.7,西北西,1.6,西北西,13.7,95.7,0,0,0,2,0,0,996.5,1010.3
228,2024-06-03T03:47:00,0.8,西北西,1.6,西北西,13.7,95.7,0,0,0,2,0,0,996.6,1010.4
229,2024-06-03T03:48:00,0.9,西北西,1.6,西北西,13.7,95.6,0,0,0,2,0,0,996.6,1010.4
230,2024-06-03T03:49:00,1,西,1.6,西北西,13.6,95.4,0,0,0,2,0,0,996.5,1010.3
231,2024-06-03T03:50:00,1.1,西北西,1.6,西北西,13.6,95.4,0,0,0,2,0,0,996.6,1010.4
232,2024-06-03T03:51:00,1.2,西,1.9,西,13.5,95.4,0,0,0,2,0,0,996.6,1010.4
233,2024-06-03T03:52:00,1.3,西北西,1.9,西,13.5,95.4,0,0,0,2,0,0,996.6,1010.4
234,2024-06-03T03:53:00,1.3,西北西,2,西北西,13.5,95.5,0,0,0,2,0,0,996.7,1010.5
235,2024-06-03T03:54:00,1.4,西,2,西北西,13.6,95.8,0,0,0,2,0,0,996.6,1010.4
236,2024-06-03T03:55:00,1.4,西,2,西北西,13.8,95.8,0,0,0,2,0,0,996.6,1010.4
237,2024-06-03T03:56:00,1.4,西,2,西北西,13.7,95.2,0,0,0,2,0,0,996.6,1010.4
238,2024-06-03T03:57:00,1.4,西北西,2,西北西,13.8,95.1,0,0,0,2,0,0,996.6,1010.4
239,2024-06-03T03:58:00,1.4,西北西,2,西北西,13.8,95.1,0,0,0,2,0,0,996.6,1010.4
240,2024-06-03T03:59:00,1.4,西北西,2,西北西,13.7,94.7,0,0,0,2,0,0,996.6,1010.4
241,2024-06-03T04:00:00,1.3,西北西,2,西北西,13.7,95,0,0,0,2,0,0,996.6,1010.4
242,2024-06-03T04:01:00,1.2,西北西,2,西北西,13.7,95.2,0,0,0,2,0,0,996.6,1010.4
243,2024-06-03T04:02:00,1.1,西北西,2,西北西,13.7,95.3,0,0,0,2,0,0,996.7,1010.5
244,2024-06-03T04:03:00,1,西北西,2,西,13.6,95.2,0,0,0,2,0,0,996.7,1010.5
245,2024-06-03T04:04:00,0.9,西北西,2,西,13.6,94.9,0,0,0,2,0,0,996.7,1010.5
246,2024-06-03T04:05:00,0.8,西北西,1.9,西,13.6,95.1,0,0,0,2,0,0,996.8,1010.6
247,2024-06-03T04:06:00,0.7,西北西,1.5,西北西,13.5,94.7,0,0,0,2,0,0,996.7,1010.5
248,2024-06-03T04:07:00,0.7,西北西,1.2,北西,13.2,94.2,0,0,0,2,0,0,996.7,1010.6
249,2024-06-03T04:08:00,0.6,西北西,1,西北西,13.3,95.1,0,0,0,2,0,0,996.7,1010.6
250,2024-06-03T04:09:00,0.6,西北西,1,西北西,13.5,95.7,0,0,0,2,0,0,996.7,1010.5
